TimeEST,TemperatureF,Dew PointF,Humidity,Sea Level PressureIn,VisibilityMPH,Wind Direction,Wind SpeedMPH,Gust SpeedMPH,PrecipitationIn,Events,Conditions,WindDirDegrees,DateUTC
12:52 AM,37.9,35.1,89,29.55,10.0,NW,4.6,-,0.00,,Overcast,320,2013-02-20 05:52:00
1:52 AM,39.0,34.0,82,29.56,10.0,West,3.5,-,N/A,,Mostly Cloudy,270,2013-02-20 06:52:00
2:35 AM,37.4,33.8,87,29.56,10.0,West,15.0,19.6,0.01,Rain,Light Rain,280,2013-02-20 07:35:00
2:52 AM,37.0,30.9,79,29.57,10.0,West,13.8,18.4,0.01,,Overcast,270,2013-02-20 07:52:00
3:03 AM,35.6,28.4,75,29.56,10.0,WNW,11.5,20.7,N/A,,Mostly Cloudy,290,2013-02-20 08:03:00
3:52 AM,34.0,27.0,75,29.57,10.0,West,13.8,26.5,N/A,,Clear,280,2013-02-20 08:52:00
4:52 AM,33.1,23.0,66,29.59,10.0,WNW,12.7,20.7,N/A,,Clear,300,2013-02-20 09:52:00
5:52 AM,32.0,19.0,59,29.61,10.0,WNW,19.6,26.5,N/A,,Scattered Clouds,290,2013-02-20 10:52:00
6:52 AM,30.0,18.0,61,29.64,10.0,West,15.0,21.9,N/A,,Clear,280,2013-02-20 11:52:00
7:52 AM,30.0,18.0,61,29.66,10.0,WNW,11.5,19.6,N/A,,Partly Cloudy,290,2013-02-20 12:52:00
8:52 AM,30.9,17.1,57,29.67,10.0,WNW,18.4,24.2,N/A,,Mostly Cloudy,290,2013-02-20 13:52:00
9:52 AM,30.9,16.0,54,29.67,10.0,West,18.4,28.8,N/A,,Overcast,280,2013-02-20 14:52:00
10:52 AM,30.9,15.1,52,29.68,10.0,West,21.9,32.2,N/A,,Overcast,280,2013-02-20 15:52:00
11:52 AM,32.0,14.0,48,29.67,10.0,WNW,23.0,31.1,N/A,,Overcast,290,2013-02-20 16:52:00
12:52 PM,30.9,12.9,47,29.66,10.0,West,21.9,29.9,N/A,,Overcast,280,2013-02-20 17:52:00
1:52 PM,30.9,12.0,46,29.65,10.0,WNW,16.1,26.5,N/A,,Overcast,300,2013-02-20 18:52:00
2:52 PM,30.9,10.0,42,29.67,10.0,WNW,19.6,34.5,N/A,,Overcast,290,2013-02-20 19:52:00
3:52 PM,30.9,9.0,40,29.68,10.0,West,20.7,28.8,N/A,,Partly Cloudy,280,2013-02-20 20:52:00
4:52 PM,28.9,9.0,43,29.69,10.0,West,19.6,31.1,N/A,,Mostly Cloudy,280,2013-02-20 21:52:00
5:52 PM,28.0,10.0,47,29.70,10.0,West,17.3,26.5,N/A,,Clear,280,2013-02-20 22:52:00
6:52 PM,27.0,10.0,49,29.73,10.0,WNW,15.0,23.0,N/A,,Clear,300,2013-02-20 23:52:00
7:52 PM,27.0,10.9,51,29.74,10.0,WNW,11.5,25.3,N/A,,Overcast,300,2013-02-21 00:52:00
8:52 PM,26.1,12.0,55,29.75,10.0,WNW,12.7,23.0,N/A,,Partly Cloudy,290,2013-02-21 01:52:00
10:52 PM,26.1,14.0,60,29.78,10.0,WNW,16.1,25.3,N/A,,Clear,290,2013-02-21 03:52:00
11:52 PM,26.1,14.0,60,29.78,10.0,WNW,12.7,21.9,N/A,,Clear,290,2013-02-21 04:52:00